[[{"header":{"parameterUnit":"m.s-1","parameterCategory":1,"la1":30.2991,"la2":30.254,"lo1":-89.0895,"lo2":-89.0444,"dy":0.0017,"dx":0.0017,"nx":28,"ny":28,"refTime":"2024-08-16T09:00:00:Z","depth":0,"parameterNumber":2,"parameterNumberName":"U-component_of_WINDS"},"data":[0,0,0,0,0,0,0,0,0,0,0,0,0,0,0,0,0,0,0,0,0,0,0,0,0,0,0,0,0,0,0,0,0,0,0,0,0,0,0,0,0,0,0,0,0,0,0,0,0,0,0,0,0,0,0,0,0,0,-0.2359,-0.2359,0,-0.2351,-0.2351,-0.2351,-0.2326,-0.2326,-0.2325,-0.2324,-0.2317,-0.2318,-0.2318,0,0,0,0,0,0,0,0,0,0,0,0,0,-0.2356,-0.2356,-0.2359,-0.2359,-0.2359,-0.2351,-0.2351,-0.2351,-0.2326,-0.2326,-0.2325,-0.2324,-0.2317,-0.2318,-0.2318,0,0,0,0,0,0,0,0,0,0,0,0,0,-0.2354,-0.2356,-0.2359,-0.2346,-0.2345,-0.2351,-0.2351,-0.2351,-0.2326,-0.2326,-0.2325,-0.2324,-0.2317,-0.2318,-0.2318,-0.2338,0,0,-0.232,-0.232,0,0,0,0,0,0,0,0,-0.2354,-0.2354,-0.2348,-0.2347,-0.2345,-0.2339,-0.2347,-0.2347,-0.2327,-0.2333,-0.2324,-0.2324,-0.2325,-0.2325,-0.2325,-0.2337,-0.2337,-0.232,-0.232,-0.232,-0.232,0,0,0,0,0,0,0,-0.2354,-0.2354,-0.2356,-0.2348,-0.2346,-0.2341,-0.234,-0.2347,-0.2334,-0.2333,-0.2331,-0.233,-0.2324,-0.2325,-0.2325,-0.2337,-0.232,-0.232,-0.232,-0.2321,-0.2367,-0.2368,0,0,0,0,0,0,-0.2356,-0.2354,-0.2356,-0.2356,-0.2348,-0.2342,-0.234,-0.2342,-0.2334,-0.2332,-0.2331,-0.2329,-0.2325,-0.2324,-0.2325,-0.2349,-0.232,-0.2321,-0.2321,-0.2366,-0.2367,-0.2368,0,0,0,0,0,0,-0.2356,-0.2356,-0.2357,-0.2355,-0.2354,-0.2343,-0.2345,-0.2342,-0.2343,-0.2333,-0.233,-0.2334,-0.2324,-0.2324,-0.2335,-0.2348,-0.2321,-0.2321,-0.2365,-0.2366,-0.2367,-0.2396,0,0,0,0,0,0,-0.2356,-0.2356,-0.2363,-0.2355,-0.2354,-0.2367,-0.2345,-0.2342,-0.2343,-0.2341,-0.2335,-0.2333,-0.2323,-0.2334,-0.2336,-0.2348,-0.2322,-0.2364,-0.2365,-0.2367,-0.2394,-0.2398,-0.2402,0,0,0,0,0,-0.2356,-0.2371,-0.2364,-0.2364,-0.2363,-0.2368,-0.2367,-0.2356,-0.2344,-0.2352,-0.2346,-0.2333,-0.2346,-0.2336,-0.2337,-0.235,-0.2363,-0.2365,-0.2367,-0.2392,-0.2397,-0.2402,0,0,0,0,0,0,-0.2381,-0.237,-0.2361,-0.2374,-0.2372,-0.2363,-0.2372,-0.2361,-0.2362,-0.236,-0.2346,-0.2345,-0.2358,-0.2355,-0.2344,-0.2369,-0.2352,-0.2355,-0.2371,-0.2376,-0.238,-0.2381,-0.2322,0,0,0,0,0,-0.2389,-0.2393,-0.2383,-0.2396,-0.2395,-0.2384,-0.2385,-0.2377,-0.2374,-0.2373,-0.2367,-0.2366,-0.237,-0.2372,-0.2375,-0.2393,-0.2392,-0.2402,-0.2406,-0.241,-0.2412,-0.2423,-0.2428,-0.2375,-0.2375,-0.2375,0,0,-0.2404,-0.2398,-0.2401,-0.2401,-0.2398,-0.2404,-0.2383,-0.239,-0.2394,-0.2374,-0.2384,-0.238,-0.2378,-0.2393,-0.2399,-0.239,-0.2427,-0.2412,-0.2415,-0.2416,-0.2426,-0.2431,-0.2435,-0.2376,-0.2376,-0.2376,0,0,-0.2434,-0.243,-0.2441,-0.2438,-0.2434,-0.2427,-0.243,-0.2423,-0.2419,-0.2429,-0.2415,-0.242,-0.2427,-0.2426,-0.2426,-0.2458,-0.2447,-0.2459,-0.248,-0.2491,-0.2495,-0.2499,-0.2512,-0.2516,-0.2461,-0.2461,-0.2462,0,-0.2454,-0.2461,-0.2448,-0.2456,-0.2456,-0.2438,-0.245,-0.2448,-0.2446,-0.2447,-0.2437,-0.2446,-0.2443,-0.2458,-0.2466,-0.2466,-0.247,-0.246,-0.2496,-0.2499,-0.2502,-0.2515,-0.2519,-0.2463,-0.2463,-0.2463,-0.2463,0,-0.2486,-0.2492,-0.2501,-0.2499,-0.2501,-0.2511,-0.25,-0.2503,-0.2494,-0.2488,-0.25,-0.2495,-0.2498,-0.25,-0.2492,-0.2515,-0.251,-0.2498,-0.2481,-0.2509,-0.2521,-0.2525,-0.2465,-0.2465,-0.2464,-0.2464,0,0,-0.2533,-0.2524,-0.2528,-0.2527,-0.2522,-0.2526,-0.2536,-0.2538,-0.2542,-0.2541,-0.255,-0.2556,-0.2546,-0.2546,-0.2537,-0.2546,-0.2574,-0.2534,-0.2533,-0.2543,-0.2601,-0.2611,-0.2617,-0.2566,-0.2567,-0.2568,-0.2602,0,-0.2563,-0.2579,-0.2567,-0.2585,-0.2591,-0.2574,-0.2583,-0.2581,-0.2576,-0.2581,-0.2575,-0.2581,-0.2565,-0.2566,-0.2574,-0.2569,-0.2586,-0.2566,-0.2576,-0.2576,-0.2578,-0.2622,-0.2633,-0.2665,-0.2606,-0.2607,-0.2607,0,-0.2601,-0.2602,-0.262,-0.2615,-0.2617,-0.2625,-0.2627,-0.2631,-0.2629,-0.2625,-0.2626,-0.2615,-0.2626,-0.2608,-0.2623,-0.261,-0.2613,-0.2611,-0.2612,-0.2613,-0.2594,-0.2627,-0.2675,-0.2681,-0.2614,-0.2613,-0.2613,0,-0.2635,-0.2641,-0.2653,-0.2653,-0.2647,-0.2653,-0.2651,-0.2648,-0.2651,-0.2652,-0.2654,-0.2657,-0.2659,-0.2662,-0.2653,-0.2641,-0.2669,-0.265,-0.2667,-0.2668,-0.2675,-0.2675,-0.2726,-0.2675,-0.2674,-0.2674,-0.2674,0,-0.2671,-0.2684,-0.2669,-0.2677,-0.2691,-0.2678,-0.2692,-0.2688,-0.2686,-0.2693,-0.2679,-0.2686,-0.2673,-0.2679,-0.2672,-0.2686,-0.2686,-0.2684,-0.2683,-0.2687,-0.2687,-0.2689,-0.2688,-0.2676,-0.2675,-0.2675,-0.2675,0,-0.2713,-0.2703,-0.2716,-0.2709,-0.2708,-0.2718,-0.2713,-0.272,-0.2714,-0.2724,-0.2725,-0.2716,-0.2723,-0.2714,-0.2719,-0.2715,-0.2735,-0.2729,-0.2736,-0.2734,-0.2752,-0.2751,-0.2808,-0.2816,-0.2758,-0.2758,-0.2759,0,-0.2737,-0.2747,-0.2741,-0.2745,-0.2743,-0.275,-0.2752,-0.274,-0.2743,-0.2743,-0.2751,-0.2756,-0.276,-0.2772,-0.2766,-0.2771,-0.2766,-0.2786,-0.2767,-0.2771,-0.2768,-0.2769,-0.277,-0.279,-0.2791,-0.2791,-0.2792,0,-0.2782,-0.2777,-0.2781,-0.2784,-0.2788,-0.279,-0.279,-0.2794,-0.2782,-0.2787,-0.2793,-0.2796,-0.2803,-0.2809,-0.2812,-0.2811,-0.28,-0.2798,-0.2802,-0.2807,-0.2811,-0.2811,-0.2748,-0.2797,-0.2796,-0.2796,-0.2796,-0.2795,-0.2817,-0.2825,-0.2823,-0.2829,-0.2828,-0.2829,-0.2836,-0.2831,-0.2836,-0.284,-0.2833,-0.2842,-0.2841,-0.2844,-0.2844,-0.2852,-0.2843,-0.2849,-0.2851,-0.2853,-0.2857,-0.2809,-0.2852,-0.2852,-0.2852,-0.2852,-0.2851,0,-0.2863,-0.2861,-0.2866,-0.2868,-0.2872,-0.2861,-0.2861,-0.2866,-0.2874,-0.2874,-0.2878,-0.2887,-0.2893,-0.2888,-0.2893,-0.2901,-0.2896,-0.2903,-0.2903,-0.2903,-0.2863,-0.286,-0.2906,-0.2906,-0.2906,-0.2906,-0.2906,-0.2906,-0.2888,-0.2901,-0.2896,-0.291,-0.2907,-0.2916,-0.2918,-0.2919,-0.2919,-0.2929,-0.2934,-0.2931,-0.2929,-0.2934,-0.294,-0.2938,-0.2942,-0.2951,-0.2948,-0.2911,-0.2906,-0.29,-0.2897,-0.2951,-0.2951,-0.2987,-0.2988,-0.2988]},{"header":{"parameterUnit":"m.s-1","parameterCategory":1,"la1":30.2991,"la2":30.254,"lo1":-89.0895,"lo2":-89.0444,"dy":0.0017,"dx":0.0017,"nx":28,"ny":28,"refTime":"2024-08-16T09:00:00:Z","depth":0,"parameterNumber":3,"parameterNumberName":"V-component_of_WINDS"},"data":[0,0,0,0,0,0,0,0,0,0,0,0,0,0,0,0,0,0,0,0,0,0,0,0,0,0,0,0,0,0,0,0,0,0,0,0,0,0,0,0,0,0,0,0,0,0,0,0,0,0,0,0,0,0,0,0,0,0,5.1863,5.1863,0,5.186,5.186,5.186,5.1792,5.1791,5.1789,5.1787,5.1785,5.1786,5.1788,0,0,0,0,0,0,0,0,0,0,0,0,0,5.1809,5.181,5.1863,5.1863,5.1863,5.186,5.186,5.186,5.1793,5.1791,5.1788,5.1786,5.1784,5.1786,5.1788,0,0,0,0,0,0,0,0,0,0,0,0,0,5.1822,5.181,5.1863,5.1829,5.1826,5.186,5.186,5.186,5.1793,5.1791,5.1788,5.1785,5.1784,5.1786,5.1788,5.1855,0,0,5.1795,5.1796,0,0,0,0,0,0,0,0,5.1821,5.1824,5.1834,5.1831,5.1828,5.1824,5.184,5.1858,5.1794,5.1806,5.1787,5.1784,5.18,5.1801,5.1806,5.1855,5.1855,5.1796,5.1797,5.1798,5.1799,0,0,0,0,0,0,0,5.182,5.1824,5.1862,5.1834,5.183,5.1813,5.1812,5.1843,5.1817,5.1804,5.1799,5.18,5.1798,5.1804,5.1806,5.1855,5.1796,5.1798,5.1799,5.18,5.1957,5.1959,0,0,0,0,0,0,5.1824,5.1823,5.1862,5.1862,5.1818,5.1816,5.1815,5.1828,5.1817,5.1813,5.1802,5.1797,5.1801,5.1803,5.1805,5.1881,5.1798,5.18,5.1802,5.1954,5.1957,5.196,0,0,0,0,0,0,5.1823,5.1828,5.1862,5.1841,5.1844,5.182,5.1835,5.1829,5.1835,5.1815,5.181,5.1813,5.1799,5.1802,5.1843,5.188,5.1801,5.1803,5.1951,5.1955,5.1959,5.2034,0,0,0,0,0,0,5.1822,5.1828,5.1854,5.1842,5.1845,5.19,5.1837,5.1831,5.1839,5.1832,5.1824,5.1821,5.1797,5.184,5.1845,5.1882,5.1805,5.1947,5.1952,5.1957,5.2028,5.204,5.205,0,0,0,0,0,5.182,5.1876,5.1855,5.186,5.1877,5.1902,5.1904,5.1876,5.1843,5.1868,5.1855,5.1821,5.1876,5.1844,5.185,5.1888,5.1945,5.1951,5.1957,5.2023,5.2038,5.205,0,0,0,0,0,0,5.1892,5.1873,5.1851,5.1904,5.1905,5.1891,5.1921,5.1893,5.1904,5.1897,5.1862,5.1861,5.1907,5.1902,5.1867,5.1951,5.1904,5.1912,5.1952,5.1966,5.1977,5.1976,5.1807,0,0,0,0,0,5.1914,5.1937,5.1919,5.1968,5.1969,5.1946,5.1956,5.1934,5.1934,5.1934,5.1924,5.1925,5.1942,5.1954,5.1969,5.2028,5.2024,5.2056,5.2068,5.2077,5.2083,5.2112,5.2125,5.198,5.198,5.198,0,0,5.196,5.1953,5.1969,5.1982,5.198,5.2003,5.1946,5.1974,5.199,5.1938,5.1975,5.1969,5.1967,5.2017,5.2038,5.2014,5.2123,5.2085,5.2093,5.2094,5.212,5.2133,5.2146,5.1985,5.1984,5.1983,0,0,5.2055,5.2053,5.2091,5.2091,5.2089,5.2072,5.2082,5.2072,5.2065,5.2102,5.2062,5.2082,5.2113,5.2113,5.2117,5.2211,5.218,5.2217,5.2275,5.2304,5.2315,5.2325,5.2356,5.2368,5.2224,5.2224,5.2225,0,5.2112,5.2145,5.2115,5.2145,5.2151,5.2105,5.2143,5.2144,5.2147,5.2153,5.2126,5.2162,5.2159,5.2206,5.2229,5.2235,5.2244,5.2217,5.2316,5.2325,5.2334,5.2364,5.2376,5.2229,5.2228,5.2228,5.2227,0,5.2214,5.2238,5.227,5.2273,5.2283,5.2318,5.2292,5.2306,5.2284,5.227,5.2308,5.2302,5.2313,5.2324,5.2303,5.2368,5.2353,5.2322,5.2273,5.2353,5.238,5.2391,5.2235,5.2233,5.2232,5.2231,0,0,5.2353,5.2339,5.2351,5.2351,5.2345,5.2363,5.2395,5.2406,5.2417,5.2422,5.2446,5.2473,5.2444,5.2449,5.2427,5.2453,5.2525,5.2418,5.2417,5.2436,5.2595,5.2616,5.263,5.2505,5.2507,5.2509,5.2594,0,5.2443,5.2495,5.2469,5.2525,5.2545,5.2501,5.2529,5.2528,5.2516,5.2532,5.2519,5.2538,5.2499,5.2501,5.2524,5.2511,5.2556,5.2505,5.2526,5.2527,5.2525,5.2644,5.2668,5.2748,5.2604,5.2606,5.2608,0,5.2554,5.2561,5.2619,5.2608,5.2615,5.2641,5.2648,5.2664,5.2662,5.2651,5.2657,5.2629,5.2659,5.2613,5.2652,5.2618,5.2626,5.2621,5.2623,5.2622,5.2571,5.2644,5.2773,5.2785,5.2624,5.2623,5.2622,0,5.2646,5.2671,5.2708,5.271,5.2699,5.2717,5.2713,5.2708,5.2716,5.2723,5.2728,5.2739,5.2744,5.2753,5.2728,5.2698,5.2771,5.2723,5.2762,5.2763,5.2777,5.2776,5.2907,5.2787,5.2786,5.2786,5.2786,0,5.2748,5.2784,5.2749,5.2772,5.2811,5.278,5.282,5.2811,5.2808,5.2827,5.2791,5.2811,5.2779,5.2795,5.2777,5.2811,5.2815,5.2806,5.28,5.2808,5.2809,5.281,5.2803,5.2789,5.2789,5.2788,5.2788,0,5.2857,5.2835,5.2872,5.2858,5.2855,5.2884,5.2872,5.2892,5.2878,5.2903,5.2908,5.2886,5.2903,5.288,5.2895,5.2883,5.2929,5.2917,5.293,5.2925,5.2964,5.296,5.3098,5.3114,5.2986,5.2987,5.2989,0,5.2922,5.2948,5.2937,5.2947,5.2945,5.2962,5.297,5.2941,5.295,5.2949,5.2969,5.2983,5.2992,5.3022,5.3007,5.3018,5.3004,5.3052,5.3005,5.3011,5.3001,5.2999,5.3001,5.306,5.3062,5.3063,5.3064,0,5.3038,5.3026,5.3038,5.3046,5.3056,5.3061,5.3064,5.3074,5.3044,5.3056,5.3073,5.308,5.3095,5.3109,5.3116,5.3112,5.3083,5.3079,5.3088,5.3095,5.3101,5.3096,5.2953,5.3076,5.3075,5.3074,5.3073,5.3073,5.3125,5.3146,5.314,5.3154,5.3153,5.3156,5.3174,5.3161,5.3174,5.3183,5.3166,5.3187,5.3183,5.319,5.3189,5.3204,5.3184,5.3197,5.32,5.3204,5.3208,5.31,5.3206,5.3206,5.3205,5.3205,5.3205,0,5.3237,5.3231,5.3245,5.3249,5.326,5.3232,5.3233,5.3244,5.3262,5.3262,5.3271,5.329,5.3303,5.3289,5.3299,5.3314,5.3301,5.3318,5.3315,5.3314,5.3228,5.3218,5.3328,5.3328,5.3328,5.3328,5.3328,5.3328,5.3297,5.3329,5.3317,5.3348,5.3342,5.3361,5.3364,5.3367,5.3365,5.3387,5.3397,5.3388,5.3382,5.3392,5.3402,5.3398,5.3402,5.3423,5.3414,5.3333,5.3321,5.3309,5.3299,5.3425,5.3425,5.3499,5.35,5.35]}]]